CAPE
0 3 2 2 1 0 2 1 0 0 0 0 0 0 0 2 2 0 0 1 2 1 0 0 0 0 0 0 0 0 0 0 0 0 0 11 15 25 19 77 133 152 126 119 1 0 0 1 146 103 74 333 592 781
0 1 3 2 1 1 2 1 0 0 0 0 0 0 0 4 1 2 4 3 13 12 0 0 0 0 0 0 0 0 0 0 0 0 0 0 6 3 112 111 15 98 228 332 246 248 64 44 34 31 63 350 636 714
6 3 4 2 1 1 1 2 1 0 0 0 0 0 0 4 2 0 8 6 7 5 0 0 0 0 0 0 0 0 0 0 0 0 0 0 0 0 13 41 7 8 0 93 85 292 197 30 0 17 17 185 277 790
12 15 4 2 1 1 2 2 0 0 0 0 0 0 0 2 3 2 10 15 5 4 0 0 0 0 0 0 0 0 0 0 0 0 0 0 0 0 0 0 0 13 26 146 113 60 60 0 0 0 6 8 53 525
24 20 2 2 1 1 2 3 0 0 0 0 0 0 0 2 3 3 4 1 11 4 0 0 0 0 0 0 0 0 0 0 0 0 0 0 0 0 0 0 0 0 96 88 86 76 2 0 0 0 14 5 37 154
24 17 3 2 0 1 2 1 1 0 0 0 0 0 0 0 2 0 1 2 0 8 1 0 0 0 0 0 0 0 0 0 0 0 0 0 0 1 0 1 39 36 7 2 1 0 5 0 0 0 0 0 5 119
32 3 3 1 1 2 1 1 0 0 0 0 0 0 0 0 0 1 0 0 0 0 2 1 0 0 0 0 0 0 0 0 0 0 0 0 0 0 0 0 0 0 0 0 0 0 0 0 11 17 29 1 119 267
7 1 1 1 2 1 1 0 0 0 0 0 0 0 0 0 0 0 0 0 0 0 4 2 0 0 0 0 0 0 0 0 0 0 0 0 0 0 0 0 0 0 0 0 0 0 0 0 3 11 27 71 490 780
1 1 1 2 1 1 1 0 0 0 0 0 0 1 3 2 1 0 0 0 0 1 7 5 0 0 0 0 0 0 0 0 0 0 0 0 0 0 0 0 0 0 0 0 0 12 10 3 8 9 21 288 461 555
1 1 2 2 0 0 0 0 0 0 2 0 3 2 1 2 1 1 1 1 1 1 1 4 0 0 0 0 0 11 3 9 8 1 0 0 0 0 0 0 0 0 0 0 0 0 0 0 49 56 231 686 676 860
2 2 2 2 1 0 0 2 3 7 6 3 3 0 4 14 6 16 11 11 7 5 0 1 0 0 0 0 0 22 31 38 17 0 0 1 0 0 29 4 28 0 0 0 0 0 0 0 1 79 550 774 586 346
2 2 1 1 0 0 2 5 3 1 0 0 0 1 1 2 12 4 5 8 3 1 0 0 0 0 0 0 2 30 49 55 22 1 13 4 0 2 53 23 52 30 4 0 0 0 0 3 75 185 706 944 765 682
1 1 1 1 2 1 3 1 5 0 0 0 4 0 8 4 12 1 8 6 3 0 0 1 24 3 0 0 17 45 46 35 3 7 23 21 3 0 0 0 13 119 0 0 0 0 42 152 188 264 594 988 1088 899
0 0 1 1 1 2 7 8 6 2 2 10 15 4 0 0 0 2 0 0 0 0 15 11 10 21 54 43 35 51 46 19 14 13 21 2 0 0 0 0 33 215 72 162 97 113 177 205 190 243 350 664 825 685
3 2 3 0 0 2 4 6 2 0 1 17 11 1 0 0 0 1 0 0 0 3 11 9 7 11 19 29 44 20 19 3 10 11 23 21 0 0 0 0 57 235 290 493 281 209 119 172 226 251 294 381 433 277
3 1 0 2 1 12 3 5 1 0 0 1 1 7 14 14 14 8 15 27 6 5 0 7 1 14 18 26 16 25 19 3 4 11 1 9 0 0 0 3 233 455 558 335 273 223 174 255 283 161 65 17 9 3
0 0 0 0 9 1 1 1 1 0 0 4 1 0 0 0 0 4 3 18 18 0 0 6 7 13 4 31 12 21 20 15 11 13 0 0 0 0 0 182 421 499 396 315 213 52 39 22 0 0 0 0 0 0
0 0 0 18 7 6 8 4 1 6 2 0 0 0 0 0 0 19 12 21 4 1 6 0 1 7 12 6 10 18 8 0 0 0 0 0 9 13 34 262 237 362 233 69 45 105 105 61 36 1 0 1 0 2
0 0 2 8 5 18 12 17 2 3 0 0 0 0 0 0 0 0 0 0 8 5 6 6 0 0 0 0 1 15 6 0 0 0 0 4 33 56 84 232 171 77 78 65 44 37 24 70 41 0 0 0 0 0
0 0 5 2 1 2 5 4 2 0 0 0 0 0 0 0 2 11 15 2 4 4 4 1 1 2 7 9 31 15 21 5 1 0 1 2 17 36 104 94 74 5 0 4 7 6 1 0 0 0 0 0 0 0
0 5 3 1 1 8 2 0 0 0 0 0 0 0 2 0 5 13 11 6 9 3 2 2 0 6 6 12 6 4 27 32 0 0 0 1 1 17 14 4 6 1 23 12 7 0 0 0 0 0 0 0 0 0
0 0 0 0 0 0 0 0 0 0 1 0 0 2 7 6 2 0 0 3 6 3 0 2 7 17 7 3 23 20 14 23 5 0 2 3 24 20 19 28 20 34 8 0 0 0 0 0 0 0 0 0 0 0
0 0 0 0 0 0 0 0 0 1 4 6 5 21 6 0 0 0 1 2 0 0 0 0 7 5 0 0 0 0 0 22 10 9 21 8 11 15 33 27 14 14 0 0 0 0 0 0 0 0 0 0 0 0
1 0 8 5 0 0 0 0 0 0 9 19 4 8 3 3 4 15 14 23 30 2 1 1 5 9 19 12 13 17 17 9 33 35 10 10 6 0 1 10 29 48 17 3 0 0 0 0 0 0 0 0 0 0
0 0 0 0 0 0 0 0 0 0 14 12 8 7 4 6 9 11 14 6 15 9 13 23 53 19 7 21 19 8 16 11 12 46 48 33 20 34 21 26 60 96 47 52 54 52 39 16 1 0 0 0 0 0
0 0 0 0 0 0 0 1 2 6 6 11 12 8 24 10 5 6 28 26 29 11 2 12 27 38 24 23 9 1 1 0 0 56 64 47 41 52 59 53 60 80 36 42 59 55 32 19 18 28 35 21 2 2
18 16 0 0 0 0 2 0 0 0 1 4 1 1 6 8 21 11 2 11 16 2 2 4 4 8 7 0 0 0 0 0 0 0 0 7 12 16 58 92 91 105 68 48 63 61 57 34 33 27 32 41 45 27
1 0 7 1 3 0 4 7 1 8 2 9 4 6 21 6 32 27 25 8 0 0 0 0 0 0 0 0 0 0 0 0 0 0 0 0 0 0 0 11 32 46 73 64 41 27 19 24 32 54 85 91 80 59
0 0 0 0 2 5 6 4 20 2 8 7 9 14 32 11 11 9 7 0 2 14 13 5 0 0 0 0 0 0 0 0 0 1 6 0 0 0 0 0 0 0 0 0 0 0 3 23 18 21 24 22 10 15
0 0 0 1 3 12 13 2 17 25 41 15 13 0 0 0 0 0 1 4 10 4 1 0 0 7 6 9 9 7 0 0 0 1 5 1 0 0 0 0 0 0 1 0 0 0 0 0 4 6 9 24 32 49
0 0 0 3 21 25 22 15 9 9 8 9 18 0 0 0 0 0 0 0 0 0 0 0 0 0 0 0 3 6 2 0 0 0 0 0 0 0 0 0 0 0 1 2 10 12 12 11 16 12 7 7 15 13
0 0 2 8 18 5 0 4 8 9 11 6 3 20 6 1 0 0 0 0 0 0 0 0 0 0 0 0 0 0 0 0 0 1 0 0 0 0 0 0 0 0 5 13 12 10 8 15 23 32 32 18 10 4
0 0 1 0 5 1 2 6 0 0 10 11 7 8 10 3 0 0 0 0 0 0 0 0 0 0 0 0 0 0 0 0 0 0 0 0 0 0 0 0 0 1 5 20 64 70 62 46 44 39 21 2 25 38
CIN
0 0 0 0 0 0 0 0 0 0 0 0 0 0 0 -10 -2 -1 -1 -9 -1 -1 0 0 0 0 0 0 0 0 0 0 0 0 0 -24 -21 -65 -45 -86 -53 -35 -26 -32 -40 0 -23 -19 -167 -83 -233 -335 -352 -290
-3 0 0 0 0 0 0 0 0 0 0 0 0 0 0 -9 -3 -8 -4 -17 -6 0 0 0 0 0 0 0 0 0 0 0 0 0 0 0 -36 -21 -68 -20 -257 -65 -74 -35 -59 -32 -177 -249 -231 -235 -329 -329 -321 -336
-8 -5 0 0 0 0 0 0 0 0 0 0 0 0 0 -9 -9 0 -2 -8 -8 -3 0 0 0 0 0 0 0 0 0 0 0 0 0 0 0 0 -44 -71 -121 -212 0 -133 -132 -103 -124 -188 0 -317 -345 -339 -368 -277
-4 -2 0 0 0 0 0 0 0 0 0 0 0 0 0 -13 -9 -16 -4 -4 -8 -5 0 0 0 0 0 0 0 0 0 0 0 0 0 0 0 0 0 0 0 -122 -270 -124 -147 -138 -165 0 0 -65 -304 -371 -421 -308
0 0 -8 0 0 0 0 0 0 0 0 0 0 0 0 -13 -13 -14 -18 -20 -5 0 0 0 0 0 0 0 0 0 0 0 0 0 0 0 0 0 0 0 0 0 -82 -46 -52 -123 -50 0 0 0 -209 -291 -367 -335
0 -1 0 0 0 0 0 0 0 0 0 0 0 0 0 0 -11 -2 0 -5 0 -4 -1 0 0 0 0 0 0 0 0 0 0 0 0 0 0 -1 0 -3 -110 -132 -144 -4 -9 -2 -256 0 0 0 -4 0 -71 -298
0 0 0 0 0 0 0 0 0 0 0 0 0 0 -1 0 0 0 0 0 0 0 -2 -1 0 0 0 0 0 0 0 0 0 0 0 0 0 -5 0 0 0 0 0 0 0 0 0 0 -141 -169 -162 -61 -210 -227
-4 0 0 0 0 0 0 -1 0 0 0 0 0 0 0 -3 0 0 0 0 0 -9 -6 0 0 0 0 0 0 0 0 0 0 0 0 0 0 0 0 0 0 0 0 0 0 0 0 0 -100 -164 -183 -194 -167 -198
-1 0 0 0 0 0 0 0 0 0 0 0 0 -5 -2 -2 0 0 0 0 0 0 0 -2 0 0 0 0 0 0 0 0 0 0 0 0 0 0 0 0 0 0 0 0 0 -89 -130 -121 -121 -202 -203 -185 -233 -276
0 0 0 0 0 -1 0 0 0 0 0 0 0 0 0 -2 -16 -2 0 0 -1 -2 -4 -5 0 0 0 0 0 -37 -108 -22 -16 -44 0 0 0 0 0 0 0 0 0 0 0 0 0 0 -129 -151 -147 -180 -207 -200
0 0 0 0 0 0 0 0 0 0 0 0 -4 0 -1 -1 -1 0 -1 -2 -1 -1 0 0 0 0 0 0 0 -59 -13 -17 -2 0 0 -1 0 0 -112 -61 -55 0 0 0 0 0 0 0 -24 -188 -183 -165 -209 -248
0 0 0 0 0 0 0 0 0 -1 0 0 0 -4 -14 -24 -5 -8 0 -1 -10 -6 0 0 0 0 0 0 -51 -56 -12 -25 -11 -27 -35 -29 -1 -76 -207 -216 -245 -280 -133 0 0 0 0 -90 -176 -187 -166 -154 -183 -177
0 0 0 0 0 0 0 0 -1 0 0 0 -7 -4 -9 -12 -1 -1 -1 -5 -9 0 0 -20 -14 -56 0 0 -78 -65 -15 -10 -65 -13 -33 -32 -125 0 -19 0 -216 -256 0 0 0 0 -153 -143 -210 -220 -206 -165 -121 -138
0 0 0 0 0 0 0 0 0 -6 -57 -6 0 -8 0 0 0 -5 0 0 -2 -7 -13 -19 -29 -36 -26 -26 -34 -18 -30 -41 -5 -7 -6 -18 0 0 0 0 -269 -223 -263 -216 -225 -227 -211 -174 -204 -293 -294 -226 -168 -154
0 0 0 0 0 0 0 0 -2 0 -20 -6 0 -2 -3 0 0 -38 -13 -6 -5 -35 -35 -35 -26 -69 -34 -16 -32 -41 -24 -9 -14 -13 -36 -72 0 0 0 0 -269 -217 -198 -191 -236 -237 -285 -285 -268 -284 -284 -240 -207 -234
0 0 0 0 -1 0 0 0 0 0 0 -6 -2 -3 -8 -10 -5 -19 -16 -15 -35 -38 -27 -74 -42 -30 -15 -21 -8 -6 -7 -5 -15 -57 -30 -139 0 0 0 -133 -219 -182 -156 -198 -243 -253 -275 -261 -252 -269 -299 -122 -113 -120
0 0 0 0 0 0 -1 -2 -4 0 -2 -1 -9 -1 -41 -1 -1 -13 -33 -10 -23 -7 -3 -26 -12 -7 -40 -9 -9 -13 -5 -30 -63 -81 -6 -16 0 0 0 -172 -145 -154 -168 -180 -212 -311 -322 -364 0 0 0 0 0 0
0 0 0 -1 -1 0 -1 -5 -5 -3 0 0 0 0 0 0 -12 -10 -22 -21 -18 -20 -28 -2 -36 -13 -8 -3 -9 -16 -39 0 0 -1 0 0 -188 -158 -150 -77 -123 -113 -154 -230 -266 -245 -244 -235 -257 -31 0 0 0 0
0 0 -4 0 -9 -13 -3 -2 -1 0 0 0 0 0 0 0 0 0 0 0 -25 -24 -20 -19 -5 0 0 0 -10 -17 -19 0 0 0 0 -104 -106 -129 -104 -68 -74 -109 -141 -162 -191 -236 -229 -242 -209 0 0 0 0 0
0 0 0 -1 0 -25 -12 -8 -33 0 0 0 0 0 0 0 -45 -53 -55 -61 -54 -7 -25 0 -5 -5 -18 -20 -17 -22 -23 -16 -2 0 0 -23 -71 -112 -75 -71 -77 -100 -122 -129 -140 -225 -141 0 0 0 0 0 0 0
-2 0 0 0 0 -31 -20 0 0 0 0 0 0 0 -47 -1 -19 -12 -9 -9 -3 -15 0 -14 -2 -22 -17 -16 -26 -32 -35 -18 0 0 0 0 0 -35 -85 -74 -87 -110 -116 -135 -154 0 0 0 0 0 0 0 0 0
0 0 0 0 0 -2 -1 -1 0 0 0 -4 0 -16 -2 -5 -1 0 -5 0 -2 -17 -12 -18 -18 -10 -8 -14 -16 -19 -29 -19 -37 -28 -47 -27 -15 -33 -43 -54 -74 -63 -90 0 0 0 0 0 0 0 0 0 0 0
0 0 0 0 0 0 -14 0 0 -8 -3 -3 -10 0 -2 -4 -2 -6 -1 -1 0 -10 0 0 -16 -11 0 0 0 0 -11 -12 -23 -11 -3 -22 -18 -6 -22 -37 -64 -68 0 0 0 0 0 0 0 0 0 0 0 0
-68 0 -44 -50 0 0 0 -4 0 0 -4 -1 -2 -1 -2 -2 -5 0 -1 -1 -1 -1 -2 0 -6 -6 -14 -15 -8 -4 -3 -11 -6 -1 -9 -13 -15 -4 -26 -32 -45 -55 -56 -44 0 0 0 0 0 0 0 0 0 0
0 0 0 -39 0 0 0 0 0 -1 -1 -3 -1 -1 -1 -9 -3 -2 0 -3 -4 -9 -10 -6 -6 -2 -9 -5 -8 -21 -51 -50 -49 -27 -19 -16 -19 -14 -12 -36 -57 -70 -90 -56 -48 -42 -45 -72 -5 -5 0 0 0 0
0 0 0 0 0 0 0 -8 -16 -6 -5 -3 -3 -4 -2 -2 -1 0 0 -5 -7 -12 0 -22 -13 -21 -26 -37 -44 -56 -32 0 0 -58 -69 -72 -80 -66 -50 -45 -36 -52 -133 -110 -79 -50 -42 -50 -49 -49 -47 -57 -22 -14
-7 -8 -2 0 0 0 -12 -12 0 -3 -4 -2 -7 -9 -2 0 0 -3 -18 -24 -32 -76 -40 -36 -60 -56 -71 -14 0 0 0 0 0 0 0 -144 -145 -146 -94 -38 -31 -39 -92 -97 -74 -41 -31 -37 -40 -53 -45 -47 -46 -54
-2 0 -12 -30 -39 -15 -20 -9 -4 -6 -3 -9 -6 -1 0 -1 0 -3 -21 -81 -42 0 0 0 0 0 0 0 0 0 0 0 0 0 0 0 0 0 -9 -113 -114 -90 -72 -73 -64 -68 -54 -50 -46 -49 -56 -58 -55 -78
-39 0 0 -14 -31 -27 -20 -15 -7 -11 -19 -8 -1 -1 0 -6 -33 -50 -86 -16 -120 -100 -88 -90 -4 0 0 0 0 0 0 0 0 -27 -15 -10 -3 0 0 0 0 -75 0 0 0 0 -36 -43 -43 -38 -46 -34 -34 -58
-39 0 0 -17 -32 -15 -12 -38 -16 -20 -17 -18 -10 0 0 0 0 0 -61 -100 -84 -96 -47 0 0 -90 -76 -62 -59 -74 0 0 0 -66 -37 -36 0 0 0 0 0 0 -33 0 0 0 0 -20 -15 -23 -37 -35 -34 -34
0 0 0 -32 -3 -4 -9 -21 -21 -23 -21 -26 -18 0 0 0 0 0 0 0 0 0 0 0 0 0 0 -14 -72 -63 -52 0 0 0 0 0 0 0 0 0 0 0 -42 -26 -35 -31 -31 -41 -39 -36 -30 -31 -28 -42
0 0 -16 -6 -4 -21 -6 -9 -12 -16 -7 -11 -13 -15 -12 -13 0 0 0 0 0 0 0 0 0 0 0 0 0 0 0 0 0 -149 0 0 0 0 0 0 0 0 -80 -61 -45 -39 -35 -27 -20 -22 -16 -26 -51 -51
0 0 -3 -4 -9 -8 -17 -13 -12 -8 -5 -3 -9 -16 -24 -23 0 0 0 0 0 0 0 0 0 0 0 0 0 0 0 0 0 0 0 0 0 0 -46 0 0 -61 -44 -43 -28 -26 -22 -20 -19 -26 -28 -7 -37 -40
Wind_Speed
31 28 27 25 22 18 16 15 17 20 21 21 21 21 21 18 18 17 18 15 18 20 24 19 17 15 15 15 18 18 17 16 17 12 11 10 10 11 13 14 16 18 21 23 22 27 33 23 23 25 29 30 30 27
30 31 30 28 23 17 15 14 16 16 19 20 20 19 20 18 17 15 19 17 17 21 22 20 26 29 22 18 17 17 17 16 15 13 13 13 11 11 12 16 17 21 22 25 22 24 21 24 30 30 29 32 29 24
30 33 30 27 23 15 14 13 14 15 17 19 19 18 19 18 17 16 19 19 20 24 28 25 23 24 8 8 11 17 16 17 15 15 14 14 10 10 11 14 19 21 19 22 25 21 24 31 29 26 25 26 27 26
30 29 26 25 19 13 12 10 9 12 15 18 17 18 19 17 17 16 19 18 19 21 23 20 17 18 16 12 7 9 14 14 17 17 15 14 13 11 14 19 18 19 13 19 26 29 21 18 20 22 23 25 25 23
28 26 25 25 17 10 9 9 11 11 13 14 15 16 18 17 16 16 19 19 19 20 21 24 30 18 18 8 4 5 8 15 20 18 16 15 15 14 16 19 20 13 20 20 24 23 24 26 24 25 22 23 23 22
26 25 25 20 11 9 10 8 9 10 9 9 12 15 16 15 14 16 18 19 17 17 21 22 20 18 17 10 5 4 6 10 14 14 16 17 17 17 19 22 20 20 25 27 27 26 29 31 31 27 19 21 24 22
23 23 22 12 10 8 8 8 7 8 11 8 12 14 14 14 14 18 17 15 16 14 19 22 20 16 15 11 9 9 8 13 12 15 18 19 17 14 23 33 33 34 34 35 35 34 35 29 25 18 20 26 24 19
21 22 12 8 9 8 7 5 5 6 7 9 9 13 9 13 17 20 17 17 16 18 18 19 20 19 14 13 11 9 10 11 12 16 18 18 17 17 23 32 35 37 36 37 36 33 33 29 25 26 25 24 17 11
20 12 8 9 9 6 5 4 1 1 3 5 6 6 11 15 17 17 12 12 15 18 19 18 19 18 18 14 13 10 10 13 13 15 18 15 17 20 24 26 28 32 28 29 28 28 25 23 28 28 25 19 11 11
7 8 9 9 8 7 4 3 1 3 1 3 8 13 17 16 11 8 14 15 17 18 19 20 18 19 18 17 12 10 11 14 16 16 17 20 27 36 35 38 39 39 38 31 34 31 25 28 26 24 20 13 7 3
8 9 9 8 7 6 4 2 6 6 2 12 14 14 12 6 10 12 15 16 16 19 16 17 17 19 14 17 15 13 14 14 18 18 18 19 21 22 27 29 28 31 34 36 35 35 31 29 27 21 14 8 4 7
8 7 7 6 6 7 5 11 9 2 4 7 10 8 9 12 13 14 16 15 17 17 15 15 16 14 14 12 13 14 15 16 18 16 18 19 17 26 27 27 27 28 29 26 13 24 25 22 18 14 9 3 4 2
7 5 6 8 8 8 8 9 5 4 6 7 11 12 13 13 15 17 17 17 17 15 13 13 15 13 12 12 15 15 15 18 19 18 19 18 25 28 28 27 26 24 20 18 17 15 13 15 10 7 5 5 2 11
7 7 7 7 12 9 4 9 4 3 10 12 12 13 15 15 18 16 17 16 15 13 13 15 15 13 13 12 14 15 17 18 19 18 18 22 27 29 28 25 24 21 16 12 11 11 11 11 10 7 5 2 6 7
9 9 9 14 10 11 5 10 4 9 10 11 12 18 19 19 18 16 16 15 13 15 16 15 15 15 14 15 15 17 17 18 18 19 21 25 27 27 26 24 22 19 15 12 11 10 10 10 8 6 4 3 4 6
9 11 17 12 8 3 3 3 12 15 15 14 15 17 15 15 16 13 14 16 13 13 15 15 15 16 17 18 16 17 18 18 17 20 23 25 26 26 24 22 20 16 12 10 9 7 7 7 7 5 5 7 7 7
15 16 11 5 4 7 6 11 11 12 14 15 15 18 18 17 16 15 15 13 11 16 17 17 17 17 18 20 21 19 19 19 21 23 25 26 26 25 23 20 15 10 9 8 8 8 6 6 5 7 7 8 7 7
13 10 4 5 3 2 12 10 6 14 19 20 19 17 19 19 16 17 17 14 14 17 17 20 19 21 21 22 20 19 21 24 24 26 28 27 26 25 22 17 14 11 11 12 13 13 8 7 8 9 7 7 6 6
3 5 8 8 4 8 8 14 19 20 21 20 20 20 20 22 23 24 23 22 21 20 20 21 22 22 25 27 28 23 24 26 27 28 28 27 26 25 22 13 9 11 10 10 10 11 10 9 9 9 7 6 6 7
7 7 9 4 13 13 13 17 21 19 20 19 20 21 20 21 21 21 21 19 22 24 23 24 27 29 28 26 24 25 26 27 28 28 27 25 25 22 14 7 6 9 8 9 9 8 6 6 8 8 7 7 8 8
10 11 17 14 14 13 14 16 20 19 20 20 20 20 20 20 20 21 24 25 18 20 30 26 34 33 33 31 31 30 29 26 27 26 26 26 23 17 9 9 6 7 7 6 4 5 6 6 6 7 7 8 8 8
12 16 17 17 16 16 16 18 18 17 18 18 17 18 17 17 8 6 17 14 21 23 23 30 30 30 30 28 25 26 27 28 27 26 25 24 17 13 7 8 3 3 7 8 8 5 6 6 7 8 9 9 9 9
20 18 17 16 15 15 15 15 16 16 16 16 15 14 14 14 15 15 15 16 16 18 20 22 22 23 24 24 25 25 26 26 25 24 22 19 11 9 4 6 9 5 4 7 5 5 7 9 10 11 11 10 10 9
16 15 14 15 15 16 16 16 15 15 14 12 12 13 13 15 14 15 13 13 11 12 18 20 20 19 19 20 20 19 19 18 19 16 14 15 13 9 8 7 10 12 9 6 6 7 7 9 10 11 11 12 11 11
15 14 14 15 17 17 16 15 14 13 11 10 10 12 12 12 12 12 8 6 8 8 6 13 11 11 9 9 8 8 11 11 17 21 22 19 10 4 8 11 17 16 8 7 7 8 9 9 8 8 8 8 8 7
13 14 16 16 16 16 14 13 12 11 10 9 12 12 14 13 12 11 7 2 1 5 6 11 13 12 7 10 9 6 14 14 5 5 25 26 26 24 25 25 22 23 13 7 9 9 10 11 10 7 6 6 6 7
12 13 16 17 15 14 13 13 12 12 11 9 11 11 9 7 3 4 4 3 3 7 8 8 12 8 6 3 6 7 8 3 4 5 3 17 23 21 22 11 9 9 10 11 11 12 13 14 13 11 9 8 7 7
15 13 13 13 13 13 12 10 10 9 8 9 10 7 8 7 5 5 6 4 4 5 5 5 5 4 5 5 5 5 7 7 9 14 15 14 14 13 13 13 14 14 14 14 15 15 16 16 15 14 13 13 14 13
15 13 15 13 13 12 10 10 9 10 8 11 6 5 4 5 6 7 7 5 6 14 17 16 14 13 14 15 15 15 14 14 15 14 15 14 14 15 15 16 16 17 17 17 17 17 16 16 16 17 17 18 19 20
14 13 13 12 11 10 10 11 10 8 4 4 9 6 8 3 6 5 9 11 15 16 16 17 15 16 17 16 16 16 17 17 16 16 16 16 17 17 18 19 19 19 19 19 19 19 17 16 17 18 19 18 17 19
16 15 14 13 12 11 11 10 9 9 5 7 7 4 12 5 9 13 14 11 14 16 17 18 18 18 17 16 16 17 18 19 19 19 19 18 18 19 20 20 20 20 21 21 20 19 18 17 17 19 20 21 22 21
16 15 14 14 13 11 11 12 9 11 11 11 10 10 10 8 14 9 9 12 18 19 18 17 18 17 16 17 20 21 20 21 21 21 21 21 21 21 21 20 20 21 21 21 21 20 20 21 21 21 21 21 22 23
16 16 16 15 15 14 12 12 11 11 11 10 12 11 11 12 15 9 8 14 20 20 20 19 19 21 22 22 21 21 22 21 22 22 22 23 22 22 21 21 21 21 21 20 20 22 23 23 23 23 23 24 25 26
Wind_Direction
278 275 276 277 277 275 275 282 289 292 296 299 300 302 306 311 315 312 307 312 298 294 287 293 299 297 300 299 292 300 303 306 301 304 308 315 316 312 316 313 308 302 300 295 297 283 272 293 291 283 286 291 290 293
273 272 272 273 274 268 265 274 285 290 293 293 296 298 300 305 309 309 300 302 300 290 289 297 281 274 285 291 296 299 302 310 314 317 314 312 315 314 308 303 303 299 295 289 293 288 300 294 286 283 290 281 285 291
268 267 269 270 272 258 261 266 278 283 292 290 290 292 296 299 302 301 297 299 293 293 288 290 292 290 284 213 284 289 299 302 315 319 320 322 317 321 310 301 296 297 300 295 292 296 292 287 294 300 296 291 281 274
266 265 266 267 268 249 249 257 265 284 289 287 287 287 293 297 301 298 294 301 296 298 294 297 312 303 308 302 217 230 292 308 308 313 322 321 325 330 319 303 301 301 309 296 284 279 295 316 317 306 295 294 286 280
265 264 264 263 261 235 237 242 263 282 287 293 289 285 290 295 299 297 292 292 294 293 294 290 283 303 304 298 282 257 221 278 294 306 311 316 322 321 314 299 296 309 293 289 279 290 292 291 303 310 304 300 295 286
263 259 261 257 238 219 227 242 260 280 292 307 295 291 292 295 297 296 296 290 290 293 292 290 300 301 315 329 312 292 279 291 295 303 305 309 308 309 305 288 298 298 279 272 280 293 289 281 279 294 299 305 292 285
259 256 258 242 207 207 220 240 269 278 292 300 290 292 299 288 285 283 294 297 294 293 290 290 291 306 319 324 316 305 296 298 301 304 301 299 304 310 299 273 274 266 268 269 275 282 275 294 295 311 296 292 293 289
253 254 248 193 186 200 209 228 261 284 300 291 303 286 317 293 282 278 292 287 282 285 290 292 292 296 322 307 308 312 307 302 306 304 306 306 311 307 302 277 273 258 263 265 270 262 254 290 288 284 282 287 296 306
249 245 182 169 171 180 182 218 227 35 325 305 319 321 299 282 276 280 304 301 278 282 291 293 291 294 308 307 309 309 308 305 310 305 303 314 309 301 297 290 284 266 276 272 277 272 292 303 274 275 281 292 326 300
240 168 163 158 168 170 190 190 148 84 2 301 282 291 273 277 301 311 291 290 286 287 286 286 293 288 295 298 310 312 306 302 307 307 311 303 291 272 248 259 260 255 253 275 259 257 295 284 267 277 283 306 331 0
141 145 145 158 161 179 171 189 116 90 36 271 275 281 290 319 308 296 289 289 289 288 293 291 287 285 309 293 302 307 304 308 302 301 302 305 307 312 299 286 283 273 249 236 233 241 256 259 258 276 285 307 90 101
147 154 170 183 182 180 190 119 117 34 309 294 286 291 287 291 302 294 285 290 286 286 294 292 296 304 304 310 306 301 295 300 298 306 303 302 310 302 299 295 288 284 269 264 284 244 267 271 281 287 292 292 145 332
145 166 196 197 190 201 223 129 119 3 40 299 281 272 283 287 284 277 273 278 280 288 296 307 303 311 310 300 292 295 296 291 296 295 295 300 296 298 299 292 288 289 278 266 275 288 293 297 322 335 328 295 178 268
195 200 197 192 207 216 166 132 242 312 289 276 279 275 276 283 276 280 276 283 285 292 297 304 304 306 298 291 290 296 289 290 290 291 293 293 289 293 296 289 288 283 278 281 291 312 314 315 316 336 63 55 263 283
207 211 204 209 213 228 147 129 268 293 303 305 298 266 267 274 280 288 285 285 288 290 295 297 293 290 288 285 283 284 288 286 288 288 292 286 286 292 293 286 287 280 280 284 299 320 322 318 328 346 12 25 351 334
183 197 210 209 214 161 175 186 253 258 285 301 292 283 296 291 290 296 289 281 291 295 286 285 287 285 275 276 279 277 280 281 283 286 289 286 287 290 293 286 282 283 290 291 308 347 6 353 345 351 333 328 328 334
202 205 205 209 120 108 99 247 263 286 294 287 288 265 259 264 265 270 273 278 285 269 278 279 278 277 278 272 267 273 274 279 281 283 289 287 287 285 288 287 291 322 309 301 308 318 349 352 347 330 347 354 349 343
206 206 192 93 112 93 250 276 318 280 250 234 243 249 240 246 266 259 266 289 284 276 283 272 283 269 267 268 272 275 283 282 286 288 279 281 282 286 281 286 300 309 301 293 291 291 324 327 316 312 341 342 356 12
225 87 88 82 276 276 296 252 240 228 221 230 227 227 229 231 225 231 246 260 266 274 276 270 266 265 259 261 263 282 284 284 280 281 279 276 279 279 272 315 342 307 314 320 317 304 295 297 303 292 305 340 14 36
70 78 86 248 252 248 251 235 230 225 221 232 233 231 232 232 253 266 268 285 264 254 267 268 264 258 264 272 279 275 276 279 279 278 275 276 277 281 307 21 17 335 351 343 341 279 281 295 285 308 334 29 51 48
218 224 212 226 223 233 226 218 215 221 231 228 239 237 226 220 214 221 249 269 301 294 270 290 248 236 261 270 271 273 274 284 271 276 264 261 264 286 315 310 12 359 358 17 344 297 288 309 332 338 13 14 21 39
211 203 201 198 207 211 214 211 213 228 220 211 208 207 206 214 107 48 328 300 290 285 283 249 242 246 248 256 269 267 269 265 249 246 240 249 277 279 307 259 286 1 272 262 264 313 328 340 0 18 24 22 30 40
184 189 196 201 208 208 202 212 207 211 212 210 206 191 210 212 195 187 182 176 188 200 207 213 221 238 236 237 239 237 246 236 227 232 245 243 265 267 309 258 251 277 326 271 294 341 14 37 39 40 42 48 56 54
194 198 207 210 208 199 201 192 193 197 196 200 224 210 198 187 191 165 190 182 190 210 203 202 212 207 224 221 229 226 228 230 216 260 268 254 261 268 264 267 266 256 267 300 351 350 2 29 45 46 49 49 48 47
193 199 205 200 197 195 191 195 198 188 186 196 211 199 191 199 178 166 177 260 265 281 265 192 218 204 193 190 190 202 204 221 187 166 167 185 217 271 262 262 236 242 287 344 7 33 41 34 43 46 46 42 51 54
199 200 195 196 196 194 204 205 195 192 198 212 168 179 173 173 163 153 146 108 132 183 134 159 162 161 174 170 173 183 153 167 246 246 139 144 149 162 156 138 129 165 142 22 11 28 18 5 5 21 32 23 14 4
198 200 190 193 203 210 212 211 205 188 182 186 188 190 204 205 228 243 226 196 182 160 178 175 171 183 183 201 199 205 204 246 222 240 265 71 122 162 145 39 20 345 44 28 4 359 360 355 353 355 356 0 2 357
183 194 198 204 205 212 216 224 221 220 220 205 194 215 201 213 216 219 215 257 219 183 182 326 340 247 253 281 296 310 336 321 344 28 34 26 18 17 15 15 21 24 17 6 356 350 349 348 350 352 348 343 342 343
187 195 191 201 211 223 235 227 220 198 189 178 209 226 225 223 253 223 198 266 308 360 9 5 356 352 359 2 360 356 350 341 4 359 12 15 3 345 335 344 347 349 354 357 353 351 352 352 352 352 350 345 341 341
201 201 206 213 221 238 246 239 239 234 253 210 176 105 354 336 323 289 325 336 354 355 354 356 346 350 350 349 349 354 352 352 352 352 353 350 344 336 337 342 346 349 351 352 351 352 348 344 346 346 346 347 353 354
200 201 204 214 220 236 249 249 240 219 256 249 209 233 3 314 349 359 358 344 352 357 354 349 345 342 338 334 334 338 346 342 344 347 351 360 359 354 351 352 352 350 347 347 351 356 360 1 355 348 343 337 333 338
197 204 212 212 213 225 227 222 229 229 247 244 222 208 200 286 351 319 320 334 354 353 342 334 329 321 314 317 358 10 19 352 346 344 343 348 348 349 354 356 356 354 351 350 351 347 343 339 338 341 342 342 338 334
199 197 201 205 209 215 221 223 239 250 261 290 256 259 319 321 354 251 242 326 350 343 333 322 316 325 343 355 0 2 358 4 6 3 2 359 0 359 359 357 353 351 350 351 348 342 338 337 337 337 335 333 330 329